| time (UTC) | temp F | wind direction | speed MPH | gust MPH | rain 1hr in | rain 24hr in | rain mn in | humidity % | barometer mb |
| 20260503194943 | 59 | 124 | 0.0 | 1.0 | 0.01 | 0.10 | 0.10 | 98 | 1015.5 |
| 20260503194422 | 59 | 104 | 0.0 | 1.0 | 0.01 | 0.10 | 0.10 | 98 | 1015.5 |
| 20260503192943 | 59 | 87 | 1.0 | 2.0 | 0.01 | 0.10 | 0.10 | 98 | 1015.3 |
| 20260503191942 | 59 | 129 | 0.0 | 2.0 | 0.01 | 0.10 | 0.10 | 98 | 1015.2 |
| 20260503190943 | 59 | 101 | 0.0 | 1.0 | 0.01 | 0.09 | 0.09 | 97 | 1015.4 |
| 20260503190415 | 59 | 80 | 0.0 | 2.0 | 0.01 | 0.09 | 0.09 | 98 | 1015.2 |
| 20260503184942 | 59 | 111 | 0.0 | 1.0 | 0.01 | 0.09 | 0.09 | 97 | 1014.8 |
| 20260503184416 | 59 | 123 | 0.0 | 2.0 | 0.01 | 0.09 | 0.09 | 97 | 1015.3 |
| 20260503182930 | 59 | 111 | 0.0 | 2.0 | 0.01 | 0.09 | 0.09 | 97 | 1015.3 |
| 20260503181930 | 59 | 104 | 0.0 | 2.0 | 0.01 | 0.09 | 0.09 | 97 | 1015.1 |
| 20260503180930 | 59 | 147 | 2.0 | 3.0 | 0.00 | 0.08 | 0.08 | 97 | 1015.1 |
| 20260503175931 | 59 | 139 | 1.0 | 4.0 | 0.01 | 0.08 | 0.08 | 97 | 1015.4 |
| 20260503174930 | 59 | 141 | 1.0 | 4.0 | 0.01 | 0.08 | 0.08 | 97 | 1015.2 |
| 20260503173930 | 60 | 134 | 1.0 | 6.0 | 0.01 | 0.08 | 0.08 | 97 | 1015.5 |
| 20260503172930 | 60 | 59 | 3.0 | 4.0 | 0.01 | 0.08 | 0.08 | 97 | 1015.2 |
| 20260503172843 | 60 | 131 | 2.0 | 3.0 | 0.01 | 0.08 | 0.08 | 97 | 1015.4 |
| 20260503170930 | 59 | 69 | 1.0 | 3.0 | 0.01 | 0.08 | 0.08 | 97 | 1015.4 |
| 20260503130930 | 61 | 81 | 1.0 | 4.0 | 0.00 | 0.01 | 0.01 | 95 | 1016.6 |
| 20260503080930 | 58 | 75 | 1.0 | 2.0 | 0.00 | 0.00 | 0.00 | 86 | 1016.6 |
| 20260503072929 | 58 | 32 | 0.0 | 1.0 | 0.00 | 0.00 | 0.00 | 87 | 1016.5 |
| 20260503071930 | 58 | 5 | 1.0 | 1.0 | 0.00 | 0.00 | 0.00 | 85 | 1016.5 |
| 20260503071408 | 57 | 6 | 0.0 | 1.0 | 0.00 | 0.00 | 0.00 | 85 | 1016.4 |
| 20260503054930 | 57 | 344 | 0.0 | 2.0 | 0.00 | 0.00 | 0.00 | 85 | 1015.9 |
| 20260503053930 | 57 | 348 | 2.0 | 3.0 | 0.00 | 0.00 | 0.00 | 85 | 1016.0 |
| 20260503052930 | 57 | 8 | 0.0 | 1.0 | 0.00 | 0.00 | 0.00 | 85 | 1016.0 |
| 20260503051931 | 57 | 8 | 0.0 | 0.0 | 0.00 | 0.00 | 0.00 | 84 | 1015.8 |
| 20260503051850 | 57 | 8 | 0.0 | 1.0 | 0.00 | 0.00 | 0.00 | 83 | 1015.8 |
| 20260503045930 | 57 | 8 | 0.0 | 0.0 | 0.00 | 0.00 | 0.00 | 82 | 1015.9 |
| 20260503044930 | 57 | 8 | 0.0 | 2.0 | 0.00 | 0.00 | 0.00 | 81 | 1015.9 |
| 20260503043930 | 57 | 332 | 1.0 | 3.0 | 0.00 | 0.00 | 0.00 | 81 | 1016.1 |
| 20260503042931 | 57 | 355 | 0.0 | 1.0 | 0.00 | 0.00 | 0.00 | 82 | 1016.1 |
| 20260503041930 | 57 | 359 | 1.0 | 3.0 | 0.00 | 0.00 | 0.00 | 81 | 1016.2 |
| 20260503041421 | 56 | 337 | 2.0 | 2.0 | 0.00 | 0.00 | 0.00 | 82 | 1016.3 |
| 20260503035930 | 57 | 351 | 1.0 | 3.0 | 0.00 | 0.00 | 0.00 | 81 | 1016.2 |
| 20260503034931 | 56 | 342 | 1.0 | 3.0 | 0.00 | 0.00 | 0.00 | 81 | 1016.3 |
| 20260503033930 | 56 | 349 | 3.0 | 4.0 | 0.00 | 0.00 | 0.00 | 82 | 1016.2 |
| 20260503032930 | 56 | 355 | 2.0 | 3.0 | 0.00 | 0.00 | 0.00 | 81 | 1016.3 |
| 20260503031930 | 56 | 343 | 1.0 | 3.0 | 0.00 | 0.00 | 0.00 | 81 | 1016.2 |
| 20260503030930 | 57 | 353 | 1.0 | 3.0 | 0.00 | 0.00 | 0.00 | 81 | 1016.5 |
| 20260503025932 | 57 | 345 | 3.0 | 3.0 | 0.00 | 0.00 | 0.00 | 79 | 1016.5 |
| 20260503024931 | 58 | 4 | 2.0 | 4.0 | 0.00 | 0.00 | 0.00 | 77 | 1016.5 |
| 20260503023931 | 56 | 328 | 3.0 | 4.0 | 0.00 | 0.00 | 0.00 | 80 | 1016.7 |
| 20260503022931 | 56 | 343 | 2.0 | 3.0 | 0.00 | 0.00 | 0.00 | 83 | 1016.9 |
| 20260503022422 | 56 | 9 | 1.0 | 3.0 | 0.00 | 0.00 | 0.00 | 85 | 1016.9 |
| 20260503020931 | 56 | 348 | 2.0 | 3.0 | 0.00 | 0.00 | 0.00 | 86 | 1016.8 |
| 20260503015938 | 56 | 16 | 2.0 | 3.0 | 0.00 | 0.00 | 0.00 | 86 | 1017.0 |
| 20260503015412 | 56 | 345 | 1.0 | 3.0 | 0.00 | 0.00 | 0.00 | 86 | 1017.4 |
| 20260503013931 | 56 | 336 | 2.0 | 3.0 | 0.00 | 0.00 | 0.00 | 86 | 1017.4 |
| 20260503012931 | 56 | 337 | 2.0 | 3.0 | 0.00 | 0.00 | 0.00 | 86 | 1017.6 |
| 20260503011930 | 56 | 297 | 1.0 | 3.0 | 0.00 | 0.00 | 0.00 | 85 | 1017.6 |
| 20260503010930 | 56 | 336 | 1.0 | 2.0 | 0.00 | 0.00 | 0.00 | 86 | 1017.8 |
| 20260503005929 | 57 | 339 | 1.0 | 2.0 | 0.00 | 0.00 | 0.00 | 87 | 1017.9 |
| 20260503004930 | 57 | 339 | 1.0 | 1.0 | 0.00 | 0.00 | 0.00 | 87 | 1018.1 |
| 20260503003930 | 57 | 339 | 1.0 | 3.0 | 0.00 | 0.00 | 0.00 | 88 | 1017.9 |
| 20260503002931 | 57 | 344 | 1.0 | 2.0 | 0.00 | 0.00 | 0.00 | 87 | 1018.2 |
| 20260503002420 | 57 | 348 | 1.0 | 2.0 | 0.00 | 0.00 | 0.00 | 87 | 1018.5 |
| 20260503001848 | 56 | 352 | 0.0 | 2.0 | 0.00 | 0.00 | 0.00 | 86 | 1018.4 |
| 20260502235930 | 56 | 341 | 1.0 | 2.0 | 0.00 | 0.00 | 0.00 | 87 | 1018.4 |
| 20260502234930 | 56 | 4 | 2.0 | 3.0 | 0.00 | 0.00 | 0.00 | 86 | 1018.7 |
| 20260502233931 | 56 | 345 | 2.0 | 3.0 | 0.00 | 0.00 | 0.00 | 86 | 1018.7 |
| 20260502232931 | 56 | 337 | 0.0 | 2.0 | 0.00 | 0.00 | 0.00 | 85 | 1018.6 |
| 20260502231930 | 56 | 340 | 2.0 | 3.0 | 0.00 | 0.00 | 0.00 | 85 | 1018.6 |
| 20260502230930 | 56 | 1 | 3.0 | 4.0 | 0.00 | 0.00 | 0.00 | 84 | 1018.8 |
| 20260502230422 | 56 | 342 | 3.0 | 3.0 | 0.00 | 0.00 | 0.00 | 86 | 1018.9 |
| 20260502224930 | 57 | 340 | 1.0 | 2.0 | 0.00 | 0.00 | 0.00 | 87 | 1018.9 |
| 20260502223930 | 57 | 336 | 1.0 | 3.0 | 0.00 | 0.00 | 0.00 | 85 | 1018.8 |
| 20260502223412 | 57 | 341 | 1.0 | 4.0 | 0.00 | 0.00 | 0.00 | 84 | 1018.6 |
| 20260502221930 | 57 | 350 | 3.0 | 4.0 | 0.00 | 0.00 | 0.00 | 85 | 1018.8 |
| 20260502220930 | 57 | 349 | 1.0 | 3.0 | 0.00 | 0.00 | 0.00 | 86 | 1018.8 |
| 20260502215930 | 57 | 351 | 1.0 | 2.0 | 0.00 | 0.00 | 0.00 | 87 | 1018.9 |
| 20260502214930 | 57 | 344 | 2.0 | 4.0 | 0.00 | 0.00 | 0.00 | 87 | 1019.0 |
| 20260502213930 | 56 | 343 | 2.0 | 3.0 | 0.00 | 0.00 | 0.00 | 87 | 1018.8 |
| 20260502212931 | 56 | 354 | 2.0 | 4.0 | 0.00 | 0.00 | 0.00 | 86 | 1018.6 |
| 20260502211930 | 56 | 341 | 2.0 | 3.0 | 0.00 | 0.00 | 0.00 | 87 | 1018.6 |
| 20260502210930 | 56 | 352 | 2.0 | 4.0 | 0.00 | 0.00 | 0.00 | 88 | 1018.5 |
| 20260502210409 | 56 | 358 | 1.0 | 3.0 | 0.00 | 0.00 | 0.00 | 90 | 1018.5 |
| 20260502204930 | 57 | 336 | 1.0 | 3.0 | 0.00 | 0.00 | 0.00 | 91 | 1018.3 |
| 20260502203930 | 57 | 325 | 1.0 | 2.0 | 0.00 | 0.00 | 0.00 | 91 | 1018.2 |
| 20260502202930 | 57 | 342 | 1.0 | 2.0 | 0.00 | 0.00 | 0.00 | 91 | 1018.2 |
| 20260502202415 | 58 | 26 | 0.0 | 1.0 | 0.00 | 0.00 | 0.00 | 91 | 1017.8 |
| 20260502200931 | 58 | 57 | 0.0 | 1.0 | 0.00 | 0.00 | 0.00 | 90 | 1017.8 |
| 20260502195930 | 58 | 121 | 0.0 | 1.0 | 0.00 | 0.00 | 0.00 | 90 | 1017.8 |